| time (UTC) | temp C | wind direction | speed KPH | gust KPH | rain 1hr cm | rain 24hr cm | rain mn cm | humidity % | barometer mb |
| 20260510205246 | 33 | 13 | 17.7 | 0.0 | 0.00 | 0.00 | 0.00 | 1003.0 | |
| 20260510202933 | 33 | 336 | 9.7 | 0.0 | 0.00 | 0.00 | 0.00 | 1003.4 | |
| 20260510201756 | 32 | 338 | 14.5 | 0.0 | 0.00 | 0.00 | 0.00 | 1003.5 | |
| 20260510200619 | 32 | 305 | 9.7 | 0.0 | 0.00 | 0.00 | 0.00 | 1003.6 | |
| 20260510195442 | 32 | 321 | 16.1 | 0.0 | 0.00 | 0.00 | 0.00 | 1003.7 | |
| 20260510194305 | 31 | 315 | 12.9 | 0.0 | 0.00 | 0.00 | 0.00 | 1003.8 | |
| 20260510193127 | 32 | 285 | 11.3 | 0.0 | 0.00 | 0.00 | 0.00 | 1003.8 | |
| 20260510191951 | 31 | 318 | 14.5 | 0.0 | 0.00 | 0.00 | 0.00 | 1004.0 | |
| 20260510190813 | 31 | 307 | 20.9 | 0.0 | 0.00 | 0.00 | 0.00 | 1004.1 | |
| 20260510185637 | 31 | 287 | 12.9 | 0.0 | 0.00 | 0.00 | 0.00 | 1004.2 | |
| 20260510184500 | 32 | 359 | 8.0 | 0.0 | 0.00 | 0.00 | 0.00 | 1004.3 | |
| 20260510183322 | 31 | 290 | 8.0 | 0.0 | 0.00 | 0.00 | 0.00 | 1004.3 | |
| 20260510182146 | 31 | 330 | 12.9 | 0.0 | 0.00 | 0.00 | 0.00 | 1004.6 | |
| 20260510181009 | 31 | 295 | 17.7 | 0.0 | 0.00 | 0.00 | 0.00 | 1004.6 | |
| 20260510175834 | 31 | 285 | 12.9 | 0.0 | 0.00 | 0.00 | 0.00 | 1004.7 | |
| 20260510174655 | 31 | 8 | 8.0 | 0.0 | 0.00 | 0.00 | 0.00 | 1004.7 | |
| 20260510173518 | 30 | 11 | 14.5 | 0.0 | 0.00 | 0.00 | 0.00 | 1004.8 | |
| 20260510172341 | 31 | 14 | 12.9 | 0.0 | 0.00 | 0.00 | 0.00 | 1004.7 | |
| 20260510171205 | 30 | 264 | 17.7 | 0.0 | 0.00 | 0.00 | 0.00 | 1004.8 | |
| 20260510170029 | 30 | 288 | 17.7 | 0.0 | 0.00 | 0.00 | 0.00 | 1004.8 | |
| 20260510164850 | 30 | 304 | 16.1 | 0.0 | 0.00 | 0.00 | 0.00 | 1004.9 | |
| 20260510163712 | 30 | 359 | 11.3 | 0.0 | 0.00 | 0.00 | 0.00 | 1004.8 | |
| 20260510162536 | 29 | 300 | 12.9 | 0.0 | 0.00 | 0.00 | 0.00 | 1004.8 | |
| 20260510161400 | 29 | 359 | 8.0 | 0.0 | 0.00 | 0.00 | 0.00 | 1004.7 | |
| 20260510161358 | 29 | 359 | 8.0 | 0.0 | 0.00 | 0.00 | 0.00 | 1004.7 | |
| 20260510160222 | 29 | 8 | 4.8 | 0.0 | 0.00 | 0.00 | 0.00 | 1004.6 | |
| 20260510155045 | 28 | 294 | 9.7 | 0.0 | 0.00 | 0.00 | 0.00 | 1004.5 | |
| 20260510153908 | 29 | 293 | 9.7 | 0.0 | 0.00 | 0.00 | 0.00 | 1004.6 | |
| 20260510152731 | 28 | 319 | 9.7 | 0.0 | 0.00 | 0.00 | 0.00 | 1004.5 | |
| 20260510151554 | 28 | 359 | 4.8 | 0.0 | 0.00 | 0.00 | 0.00 | 1004.5 | |
| 20260510150416 | 27 | 11 | 6.4 | 0.0 | 0.00 | 0.00 | 0.00 | 1004.4 | |
| 20260510145240 | 27 | 52 | 6.4 | 0.0 | 0.00 | 0.00 | 0.00 | 1004.3 | |
| 20260510144102 | 26 | 69 | 9.7 | 0.0 | 0.00 | 0.00 | 0.00 | 1004.2 | |
| 20260510142926 | 26 | 6 | 8.0 | 0.0 | 0.00 | 0.00 | 0.00 | 1004.0 | |
| 20260510141748 | 24 | 69 | 6.4 | 0.0 | 0.00 | 0.00 | 0.00 | 1004.0 | |
| 20260510140611 | 23 | 24 | 0.0 | 0.0 | 0.00 | 0.00 | 0.00 | 1004.0 | |
| 20260510135434 | 22 | 111 | 8.0 | 0.0 | 0.00 | 0.00 | 0.00 | 1003.8 | |
| 20260510134257 | 22 | 84 | 0.0 | 0.0 | 0.00 | 0.00 | 0.00 | 1003.7 | |
| 20260510133121 | 21 | 94 | 0.0 | 0.0 | 0.00 | 0.00 | 0.00 | 1003.6 | |
| 20260510131943 | 21 | 39 | 4.8 | 0.0 | 0.00 | 0.00 | 0.00 | 1003.6 | |
| 20260510130806 | 21 | 42 | 0.0 | 0.0 | 0.00 | 0.00 | 0.00 | 1003.4 | |
| 20260510125629 | 21 | 35 | 8.0 | 0.0 | 0.00 | 0.00 | 0.00 | 1003.5 | |
| 20260510124452 | 21 | 41 | 6.4 | 0.0 | 0.00 | 0.00 | 0.00 | 1003.4 | |
| 20260510123316 | 21 | 32 | 8.0 | 0.0 | 0.00 | 0.00 | 0.00 | 1003.4 | |
| 20260510122138 | 21 | 8 | 8.0 | 0.0 | 0.00 | 0.00 | 0.00 | 1003.3 | |
| 20260510115824 | 21 | 52 | 6.4 | 0.0 | 0.00 | 0.00 | 0.00 | 1002.8 | |
| 20260510114648 | 20 | 284 | 0.0 | 0.0 | 0.00 | 0.00 | 0.00 | 1002.9 | |
| 20260510112335 | 20 | 284 | 0.0 | 0.0 | 0.00 | 0.00 | 0.05 | 1003.1 | |
| 20260510111157 | 19 | 284 | 0.0 | 0.0 | 0.00 | 0.00 | 0.00 | 1003.3 | |
| 20260510110020 | 19 | 284 | 0.0 | 0.0 | 0.00 | 0.00 | 0.00 | 1003.2 | |
| 20260510102529 | 20 | 322 | 4.8 | 0.0 | 0.00 | 0.00 | 0.00 | 1002.9 | |
| 20260510101352 | 20 | 323 | 6.4 | 0.0 | 0.00 | 0.00 | 0.00 | 1003.1 | |
| 20260510100215 | 20 | 298 | 6.4 | 0.0 | 0.00 | 0.00 | 0.00 | 1003.0 | |
| 20260510095038 | 20 | 323 | 8.0 | 0.0 | 0.00 | 0.00 | 0.00 | 1002.9 | |
| 20260510093901 | 20 | 11 | 0.0 | 0.0 | 0.00 | 0.00 | 0.00 | 1002.8 | |
| 20260510092724 | 20 | 46 | 4.8 | 0.0 | 0.00 | 0.00 | 0.00 | 1002.7 | |
| 20260510091547 | 20 | 20 | 8.0 | 0.0 | 0.00 | 0.00 | 0.00 | 1002.6 | |
| 20260510090411 | 20 | 14 | 4.8 | 0.0 | 0.00 | 0.00 | 0.00 | 1002.5 | |
| 20260510085233 | 20 | 37 | 4.8 | 0.0 | 0.00 | 0.00 | 0.00 | 1002.5 | |
| 20260510084056 | 20 | 46 | 4.8 | 0.0 | 0.00 | 0.00 | 0.00 | 1002.3 | |
| 20260510082919 | 21 | 46 | 9.7 | 0.0 | 0.00 | 0.00 | 0.00 | 1002.3 | |
| 20260510081742 | 21 | 58 | 8.0 | 0.0 | 0.00 | 0.00 | 0.00 | 1002.4 | |
| 20260510080605 | 21 | 38 | 8.0 | 0.0 | 0.00 | 0.00 | 0.00 | 1002.4 | |
| 20260510075428 | 21 | 46 | 6.4 | 0.0 | 0.00 | 0.00 | 0.00 | 1002.5 | |
| 20260510074251 | 21 | 27 | 11.3 | 0.0 | 0.00 | 0.00 | 0.00 | 1002.5 | |
| 20260510073114 | 21 | 59 | 8.0 | 0.0 | 0.00 | 0.00 | 0.00 | 1002.5 | |
| 20260510071937 | 21 | 63 | 4.8 | 0.0 | 0.00 | 0.00 | 0.00 | 1002.5 | |
| 20260510070802 | 21 | 49 | 9.7 | 0.0 | 0.00 | 0.00 | 0.00 | 1002.6 | |
| 20260510070800 | 21 | 49 | 9.7 | 0.0 | 0.00 | 0.00 | 0.00 | 1002.6 | |
| 20260510065623 | 22 | 34 | 8.0 | 0.0 | 0.00 | 0.00 | 0.00 | 1002.5 | |
| 20260510064448 | 22 | 53 | 138.4 | 0.0 | 0.00 | 0.00 | 0.00 | 1002.4 | |
| 20260510064446 | 22 | 53 | 9.7 | 0.0 | 0.00 | 0.00 | 0.00 | 1002.4 | |
| 20260510063309 | 22 | 68 | 4.8 | 0.0 | 0.00 | 0.00 | 0.00 | 1002.4 | |
| 20260510062132 | 22 | 76 | 6.4 | 0.0 | 0.00 | 0.00 | 0.00 | 1002.6 | |
| 20260510060956 | 22 | 51 | 9.7 | 0.0 | 0.00 | 0.00 | 0.00 | 1002.7 | |
| 20260510055819 | 22 | 62 | 4.8 | 0.0 | 0.00 | 0.00 | 0.00 | 1002.6 | |
| 20260510054641 | 23 | 39 | 8.0 | 0.0 | 0.00 | 0.00 | 0.00 | 1002.7 | |
| 20260510053505 | 23 | 27 | 8.0 | 0.0 | 0.00 | 0.00 | 0.00 | 1002.8 | |
| 20260510052327 | 23 | 55 | 8.0 | 0.0 | 0.00 | 0.00 | 0.00 | 1002.5 | |
| 20260510051150 | 23 | 41 | 8.0 | 0.0 | 0.00 | 0.00 | 0.00 | 1002.5 | |
| 20260510050013 | 23 | 58 | 4.8 | 0.0 | 0.00 | 0.00 | 0.00 | 1002.4 | |
| 20260510044836 | 24 | 49 | 8.0 | 0.0 | 0.00 | 0.00 | 0.00 | 1002.2 | |
| 20260510043700 | 25 | 60 | 4.8 | 0.0 | 0.00 | 0.00 | 0.00 | 1002.3 | |
| 20260510042522 | 25 | 34 | 6.4 | 0.0 | 0.00 | 0.00 | 0.00 | 1002.3 | |
| 20260510041345 | 25 | 55 | 8.0 | 0.0 | 0.00 | 0.00 | 0.00 | 1002.2 | |
| 20260510040208 | 26 | 58 | 8.0 | 0.0 | 0.00 | 0.00 | 0.00 | 1002.2 | |
| 20260510035031 | 26 | 44 | 8.0 | 0.0 | 0.00 | 0.00 | 0.00 | 1002.0 | |
| 20260510033855 | 26 | 23 | 8.0 | 0.0 | 0.00 | 0.00 | 0.00 | 1001.9 | |
| 20260510032719 | 26 | 37 | 8.0 | 0.0 | 0.00 | 0.00 | 0.00 | 1001.8 | |
| 20260510031541 | 27 | 359 | 16.1 | 0.0 | 0.00 | 0.00 | 0.00 | 1001.7 | |
| 20260510030405 | 27 | 30 | 16.1 | 0.0 | 0.00 | 0.00 | 0.00 | 1001.6 | |
| 20260510025229 | 27 | 45 | 9.7 | 0.0 | 0.00 | 0.00 | 0.00 | 1001.4 | |
| 20260510024050 | 28 | 31 | 12.9 | 0.0 | 0.00 | 0.00 | 0.00 | 1001.1 | |
| 20260510022912 | 28 | 357 | 14.5 | 0.0 | 0.00 | 0.00 | 0.00 | 1000.9 | |
| 20260510021735 | 28 | 330 | 0.0 | 0.0 | 0.00 | 0.00 | 0.00 | 1000.8 | |
| 20260510020558 | 28 | 304 | 4.8 | 0.0 | 0.00 | 0.00 | 0.00 | 1000.7 | |
| 20260510015421 | 28 | 311 | 0.0 | 0.0 | 0.00 | 0.00 | 0.00 | 1000.4 | |
| 20260510014245 | 29 | 290 | 9.7 | 0.0 | 0.00 | 0.00 | 0.00 | 1000.4 | |
| 20260510013108 | 29 | 342 | 0.0 | 0.0 | 0.00 | 0.00 | 0.00 | 1000.2 | |
| 20260510011931 | 29 | 342 | 0.0 | 0.0 | 0.00 | 0.00 | 0.00 | 1000.0 | |
| 20260510010754 | 30 | 342 | 0.0 | 0.0 | 0.00 | 0.00 | 0.00 | 999.8 | |
| 20260510005617 | 30 | 342 | 0.0 | 0.0 | 0.00 | 0.00 | 0.00 | 999.6 | |
| 20260510004440 | 31 | 342 | 0.0 | 0.0 | 0.00 | 0.00 | 0.00 | 999.3 | |
| 20260510003304 | 31 | 342 | 0.0 | 0.0 | 0.00 | 0.00 | 0.00 | 999.3 | |
| 20260510002126 | 31 | 356 | 0.0 | 0.0 | 0.00 | 0.00 | 0.00 | 999.3 | |
| 20260510000950 | 32 | 37 | 4.8 | 0.0 | 0.00 | 0.00 | 0.00 | 999.4 | |
| 20260509235813 | 32 | 280 | 0.0 | 0.0 | 0.00 | 0.00 | 0.00 | 999.7 | |
| 20260509234635 | 32 | 280 | 0.0 | 0.0 | 0.00 | 0.00 | 0.00 | 999.8 | |
| 20260509233458 | 31 | 340 | 8.0 | 0.0 | 0.00 | 0.00 | 0.00 | 999.8 | |
| 20260509232321 | 32 | 11 | 6.4 | 0.0 | 0.00 | 0.00 | 0.00 | 999.9 | |
| 20260509231144 | 33 | 243 | 0.0 | 0.0 | 0.00 | 0.00 | 0.00 | 999.8 | |
| 20260509230007 | 33 | 243 | 0.0 | 0.0 | 0.00 | 0.00 | 0.00 | 999.8 | |
| 20260509224830 | 34 | 179 | 0.0 | 0.0 | 0.00 | 0.00 | 0.00 | 999.8 | |
| 20260509223653 | 35 | 283 | 0.0 | 0.0 | 0.00 | 0.00 | 0.00 | 999.8 | |
| 20260509222516 | 35 | 214 | 0.0 | 0.0 | 0.00 | 0.00 | 0.00 | 999.7 | |
| 20260509221339 | 35 | 300 | 0.0 | 0.0 | 0.00 | 0.00 | 0.00 | 999.8 | |
| 20260509220202 | 35 | 277 | 0.0 | 0.0 | 0.00 | 0.00 | 0.00 | 999.7 | |
| 20260509215025 | 35 | 127 | 0.0 | 0.0 | 0.00 | 0.00 | 0.00 | 999.7 | |
| 20260509213848 | 35 | 70 | 4.8 | 0.0 | 0.00 | 0.00 | 0.00 | 999.8 | |
| 20260509212711 | 35 | 205 | 0.0 | 0.0 | 0.00 | 0.00 | 0.00 | 999.9 | |
| 20260509211534 | 33 | 212 | 0.0 | 0.0 | 0.00 | 0.00 | 0.00 | 999.9 | |
| 20260509210357 | 33 | 288 | 0.0 | 0.0 | 0.00 | 0.00 | 0.00 | 1000.2 |